User: anonymous   Login
Location: Vancouver
(49.2500°N, 123.1330°W)
Time: 08:03:15
(UTC-07:00)
Language:

AO-27 - Orbit

View from above orbital plane
View from above orbital plane
View from above satellite
View from above satellite

Ground track
Ground track

The orbit data is extracted from the following two-line orbital elements,

1 22825U 93061C   17264.89071404 -.00000001 +00000-0 +17215-4 0  9993
2 22825 098.8237 231.7148 0009329 053.5552 306.6489 14.30006727250959
Epoch (UTC): 21 September 2017 21:22:37
Eccentricity: 0.0009329
inclination: 98.8237°
perigee height: 785 km
apogee height: 798 km
right ascension of ascending node: 231.7148°
argument of perigee: 53.5552°
revolutions per day: 14.30006727
mean anomaly at epoch: 306.6489°
orbit number at epoch: 25095

The dashed part of the orbit path shows where the satellite is in the earth's shadow,  

DLR